Weather History for KLFI - December, 2013

Change the Weather History Date:

Friday, December 6, 2013

  Actual Average Record
Temperature  
Mean Temperature 64 °F -  
Max Temperature 77 °F 55 °F 78 °F (1998)
Min Temperature 49 °F 36 °F 23 °F (1992)
Degree Days  
Heating Degree Days 2    
Growing Degree Days 14 (Base 50)    
Moisture  
Dew Point 57 °F    
Average Humidity 94    
Maximum Humidity 100    
Minimum Humidity 61    
Precipitation  
Precipitation 0.00 in - - ()
Sea Level Pressure  
Sea Level Pressure 30.03 in    
Wind  
Wind Speed 11 mph (NW)    
Max Wind Speed 16 mph    
Max Gust Speed 25 mph    
Visibility 10 miles    
Events Rain    
Averages and records for this station are not official NWS values.
T = Trace of Precipitation, MM = Missing Value Source: NWS Daily Summary

Daily Weather History Graph

Daily Weather History Graph

Search for Another Location

Airport or City:

Trip Planner

Search our weather history database for the weather conditions in past years. The results will help you decide how hot, cold, wet, or windy it might be!

Date:

Astronomy

Dec. 06, 2013 Rise Set
Actual Time 7:04 AM EST 4:48 PM EST
Civil Twilight 6:36 AM EST 5:17 PM EST
Nautical Twilight 6:03 AM EST 5:49 PM EST
Astronomical Twilight 5:32 AM EST 6:20 PM EST
Moon 10:12 AM EST (12/6) 9:13 PM EST (12/6)
Length of Visible Light 10h 40m
Length of Day
9h 43m
Waxing Crescent, 19% of the Moon is Illuminated
Dec 6
Waxing Crescent
Dec 9
First Quarter
Dec 17
Full
Dec 25
Last Quarter
Jan 1
New

Hourly Weather History & Observations

Time (EST) Temp. Dew Point Humidity Pressure Visibility Wind Dir Wind Speed Gust Speed Precip Events Conditions
12:58 AM 65.5 °F 63.3 °F 93% 30.04 in 10.0 mi SW 13.8 mph 19.6 mph N/A   Partly Cloudy
1:58 AM 65.3 °F 63.7 °F 94% 30.04 in 10.0 mi SSW 9.2 mph - N/A   Overcast
2:58 AM 64.4 °F 64.0 °F 99% 30.03 in 10.0 mi SSW 10.4 mph - N/A   Scattered Clouds
3:58 AM 64.8 °F 64.4 °F 99% 30.03 in 10.0 mi SSW 9.2 mph - N/A   Overcast
4:17 AM 64.4 °F 64.4 °F 100% 30.01 in 10.0 mi SSW 9.2 mph - N/A Rain Light Rain
4:28 AM 64.4 °F 64.4 °F 100% 30.00 in 10.0 mi SSW 9.2 mph - N/A   Overcast
4:58 AM 64.6 °F 64.4 °F 99% 30.02 in 10.0 mi SSW 10.4 mph - 0.00 in   Overcast
5:58 AM 65.7 °F 63.7 °F 93% 30.03 in 10.0 mi SSW 11.5 mph - N/A   Overcast
6:58 AM 65.5 °F 64.2 °F 96% 30.03 in 10.0 mi SSW 10.4 mph - N/A   Mostly Cloudy
7:58 AM 66.9 °F 65.1 °F 94% 30.03 in 10.0 mi SSW 16.1 mph - N/A   Scattered Clouds
8:58 AM 68.7 °F 65.3 °F 89% 30.05 in 10.0 mi SW 13.8 mph 19.6 mph N/A   Partly Cloudy
9:58 AM 71.1 °F 64.8 °F 80% 30.06 in 10.0 mi SW 12.7 mph - N/A   Partly Cloudy
10:58 AM 72.3 °F 62.8 °F 72% 30.05 in 10.0 mi SW 15.0 mph 25.3 mph N/A   Partly Cloudy
11:58 AM 73.6 °F 63.1 °F 70% 30.04 in 10.0 mi SW 12.7 mph - N/A   Partly Cloudy
12:58 PM 75.2 °F 63.3 °F 66% 30.01 in 10.0 mi SW 16.1 mph 23.0 mph N/A   Clear
1:58 PM 77.4 °F 63.0 °F 61% 29.99 in 10.0 mi SW 16.1 mph 21.9 mph N/A   Clear
2:58 PM 76.6 °F 63.3 °F 63% 29.98 in 10.0 mi SW 12.7 mph - N/A   Scattered Clouds
3:58 PM 56.5 °F 53.6 °F 90% 30.00 in 10.0 mi ENE 12.7 mph - N/A   Mostly Cloudy
4:58 PM 52.2 °F 52.2 °F 100% 30.01 in 10.0 mi NNE 4.6 mph - N/A   Clear
5:58 PM 51.3 °F 51.3 °F 100% 30.02 in 10.0 mi Variable 4.6 mph - N/A   Clear
6:58 PM 51.4 °F 51.4 °F 100% 30.03 in 10.0 mi NNE 4.6 mph - N/A   Clear
7:58 PM 51.3 °F 51.3 °F 100% 30.04 in 10.0 mi NNE 5.8 mph - N/A   Clear
8:13 PM 51.8 °F 51.8 °F 100% 30.02 in 10.0 mi NNE 6.9 mph - N/A   Mostly Cloudy
8:48 PM 51.8 °F 51.8 °F 100% 30.01 in 10.0 mi NNE 8.1 mph - N/A   Scattered Clouds
8:54 PM 51.8 °F 51.8 °F 100% 30.01 in 10.0 mi NNE 6.9 mph - N/A   Scattered Clouds
8:58 PM 50.9 °F 50.9 °F 100% 30.04 in 10.0 mi NNE 5.8 mph - N/A   Scattered Clouds
9:13 PM 51.8 °F 51.8 °F 100% 30.02 in 9.0 mi NNE 6.9 mph - N/A   Mostly Cloudy
9:28 PM 50.0 °F 50.0 °F 100% 30.02 in 6.0 mi NNE 6.9 mph - N/A   Overcast
9:33 PM 50.0 °F 50.0 °F 100% 30.03 in 5.0 mi North 6.9 mph - N/A   Overcast
9:38 PM 50.0 °F 50.0 °F 100% 30.03 in 6.0 mi North 11.5 mph - N/A   Overcast
9:43 PM 50.0 °F 50.0 °F 100% 30.04 in 7.0 mi North 8.1 mph - N/A   Overcast
9:58 PM 50.7 °F 50.7 °F 100% 30.06 in 10.0 mi North 9.2 mph - N/A   Overcast
10:03 PM 50.0 °F 50.0 °F 100% 30.04 in 10.0 mi North 9.2 mph - N/A   Overcast
10:08 PM 50.0 °F 50.0 °F 100% 30.04 in 10.0 mi North 9.2 mph - N/A   Overcast
10:58 PM 50.0 °F 50.0 °F 100% 30.07 in 10.0 mi North 8.1 mph - N/A   Overcast
11:18 PM 50.0 °F 50.0 °F 100% 30.06 in 10.0 mi North 12.7 mph - N/A   Overcast
11:28 PM 50.0 °F 50.0 °F 100% 30.05 in 9.0 mi North 8.1 mph - N/A   Overcast
11:58 PM 49.1 °F 49.1 °F 100% 30.09 in 9.0 mi North 11.5 mph - N/A   Overcast